Myrtle Beach Weather Center

Moon Phase Calendar



Online Cameras

 


      

Current Conditions in Myrtle Beach
2/25/2021 11:12:38 AM

67°F
Feels Like 60
Clear
Humidity
37%
Pressure
30.15"
Wind
9.2 mph (N)
Dew Point
40°F
UV Index
5/10 (Moderate)
Visibility
6 mi

Hourly Forecast

Date & Time Thu, Feb 25
11:00 AM
Thu, Feb 25
12:00 PM
Thu, Feb 25
1:00 PM
Thu, Feb 25
2:00 PM
Thu, Feb 25
3:00 PM
Thu, Feb 25
4:00 PM
Thu, Feb 25
5:00 PM
Thu, Feb 25
6:00 PM
Thu, Feb 25
7:00 PM
Thu, Feb 25
8:00 PM
Thu, Feb 25
9:00 PM
Thu, Feb 25
10:00 PM
Thu, Feb 25
11:00 PM
Fri, Feb 26
12:00 AM
Fri, Feb 26
1:00 AM
Fri, Feb 26
2:00 AM
Fri, Feb 26
3:00 AM
Fri, Feb 26
4:00 AM
Fri, Feb 26
5:00 AM
Fri, Feb 26
6:00 AM
Fri, Feb 26
7:00 AM
Fri, Feb 26
8:00 AM
Fri, Feb 26
9:00 AM
Fri, Feb 26
10:00 AM
Fri, Feb 26
11:00 AM
Fri, Feb 26
12:00 PM
Fri, Feb 26
1:00 PM
Fri, Feb 26
2:00 PM
Fri, Feb 26
3:00 PM
Fri, Feb 26
4:00 PM
Fri, Feb 26
5:00 PM
Fri, Feb 26
6:00 PM
Fri, Feb 26
7:00 PM
Fri, Feb 26
8:00 PM
Fri, Feb 26
9:00 PM
Fri, Feb 26
10:00 PM
Fri, Feb 26
11:00 PM
Sat, Feb 27
12:00 AM
Sat, Feb 27
1:00 AM
Sat, Feb 27
2:00 AM
Sat, Feb 27
3:00 AM
Sat, Feb 27
4:00 AM
Sat, Feb 27
5:00 AM
Sat, Feb 27
6:00 AM
Sat, Feb 27
7:00 AM
Sat, Feb 27
8:00 AM
Sat, Feb 27
9:00 AM
Sat, Feb 27
10:00 AM
Condition
Clear

Clear

Clear

Clear

Clear

Clear

Clouds

Clouds

Clouds

Clear

Clouds

Clouds

Clouds

Clouds

Clouds

Clouds

Clouds

Clouds

Clouds

Clouds

Clouds

Clouds

Clouds

Clouds

Clouds

Clouds

Clouds

Clouds

Clouds

Clouds

Clouds

Clouds

Clouds

Clouds

Clouds

Clouds

Clouds

Clouds

Clouds

Clear

Clouds

Clouds

Clouds

Clouds

Clouds

Clouds

Clouds

Clouds
Temperature 67°F66°F66°F66°F65°F63°F59°F57°F56°F55°F55°F54°F54°F54°F54°F54°F53°F53°F53°F53°F53°F54°F55°F56°F58°F60°F60°F61°F61°F61°F60°F60°F59°F60°F59°F59°F59°F59°F60°F60°F60°F59°F59°F59°F58°F59°F62°F64°F
Feels Like 64°F64°F64°F63°F61°F57°F51°F50°F48°F47°F46°F46°F46°F46°F46°F45°F45°F45°F45°F44°F44°F45°F46°F48°F50°F52°F52°F52°F54°F54°F55°F56°F57°F58°F58°F59°F59°F60°F60°F60°F60°F59°F58°F58°F58°F59°F62°F64°F
Cloudiness 0%0%0%0%0%8%26%38%40%2%24%43%37%44%52%100%100%99%100%100%100%100%100%100%100%100%100%74%64%59%62%70%75%100%85%81%79%77%72%5%20%14%17%15%13%80%53%69%
Visibility 6 mi6 mi6 mi6 mi6 mi6 mi6 mi6 mi6 mi6 mi6 mi6 mi6 mi6 mi6 mi6 mi6 mi6 mi6 mi6 mi6 mi6 mi6 mi6 mi6 mi6 mi6 mi6 mi6 mi6 mi6 mi6 mi6 mi6 mi6 mi6 mi6 mi6 mi6 mi6 mi6 mi6 mi6 mi6 mi6 mi6 mi6 mi6 mi
Precipitation 0%0%0%0%0%0%0%0%0%0%0%0%0%0%0%0%0%0%0%0%0%0%0%0%0%0%0%0%0%0%0%0%2%27%20%10%10%14%10%0%0%0%0%0%0%0%0%0%
Humidity 37%46%49%52%53%60%72%79%82%81%79%79%82%81%80%80%79%79%78%77%78%79%79%77%75%72%73%72%74%77%81%85%88%88%91%91%91%92%92%93%94%94%94%95%95%93%87%81%
Dew Point 40°F45°F47°F48°F48°F49°F50°F51°F51°F49°F48°F48°F49°F49°F48°F48°F47°F47°F47°F46°F46°F48°F48°F49°F50°F51°F52°F52°F53°F54°F55°F55°F56°F56°F56°F57°F57°F57°F57°F58°F58°F58°F58°F57°F57°F58°F58°F59°F
Pressure 30.15"30.15"30.15"30.15"30.15"30.15"30.18"30.18"30.21"30.21"30.21"30.21"30.21"30.24"30.21"30.21"30.21"30.21"30.21"30.24"30.27"30.27"30.27"30.27"30.3"30.3"30.27"30.21"30.18"30.18"30.18"30.18"30.21"30.21"30.18"30.18"30.18"30.15"30.15"30.15"30.15"30.15"30.15"30.15"30.18"30.18"30.21"30.21"
Wind Speed 2.5 mph1.4 mph2.6 mph4.6 mph5.9 mph10.2 mph12.9 mph13.9 mph14.3 mph14.2 mph14.5 mph14.1 mph13.2 mph13.4 mph13.4 mph14 mph13.8 mph13.9 mph13.8 mph14 mph14 mph14.3 mph14.6 mph13.6 mph14.2 mph13.9 mph15.2 mph16.5 mph14.6 mph14 mph13 mph9.6 mph7.6 mph6.7 mph5.1 mph3.7 mph4 mph2.4 mph3.7 mph3.8 mph4.5 mph5.2 mph5.1 mph4.9 mph4.7 mph5 mph4.9 mph5.7 mph
Wind
Direction
346°
NNW
38°
NE
115°
ESE
116°
ESE
109°
ESE
100°
E
93°
E
88°
E
84°
E
80°
E
81°
E
84°
E
84°
E
79°
E
74°
ENE
70°
ENE
63°
ENE
61°
ENE
53°
NE
53°
NE
60°
ENE
64°
ENE
64°
ENE
63°
ENE
62°
ENE
69°
ENE
80°
E
89°
E
92°
E
92°
E
99°
E
103°
ESE
106°
ESE
94°
E
86°
E
88°
E
113°
ESE
136°
SE
154°
SSE
198°
SSW
210°
SSW
225°
SW
243°
WSW
247°
WSW
252°
WSW
269°
W
255°
WSW
235°
SW

Daily Forecast

Date High Low Precip. Humidity
Today
Feb 25

Clear
67 °F
53 °F
0%
46%
Friday
Feb 26

Clouds
61 °F
53 °F
27%
72%
Saturday
Feb 27

Clouds
71 °F
58 °F
14%
62%
Sunday
Feb 28

Rain
73 °F
61 °F
94%
70%
Monday
Mar 1

Rain
70 °F
54 °F
92%
84%
Tuesday
Mar 2

Clouds
51 °F
44 °F
48%
47%
Wednesday
Mar 3

Rain
51 °F
48 °F
93%
88%
Thursday
Mar 4

Rain
61 °F
46 °F
61%
48%
Friday
Mar 5

Clouds
53 °F
43 °F
0%
47%
Saturday
Mar 6

Clouds
56 °F
44 °F
0%
42%
Sunday
Mar 7

Clouds
51 °F
37 °F
0%
46%
Monday
Mar 8

Clear
52 °F
38 °F
0%
44%
Tuesday
Mar 9

Clouds
60 °F
46 °F
0%
49%
Wednesday
Mar 10

Clear
66 °F
51 °F
0%
50%
Thursday
Mar 11

Clear
67 °F
57 °F
0%
53%
Friday
Mar 12

Clouds
69 °F
60 °F
0%
61%


Temperature 8-14 Day Outlook



Precipitation 8-14 Day Outlook




Quick Links
Myrtle Beach News
Myrtle Beach Photos
Myrtle Beach Videos




About Us
Contact Us
Site Map
Search Site
Advertise With Us
   
MyrtleBeach.USCoast.info
THE MYRTLE BEACH WEBSITE

Copyright 2021, Coastal Town
Privacy    |    Legal